Tracking 19846 objects as of 20-Sep-2019
HD Live streaming from Space Station
objects crossing your sky now

RADIO 8

Track RADIO 8 now!
10-day predictions
RADIO 8 is classified as:


NORAD ID: 12998
Int'l Code: 1981-120B
Perigee: 1,657.9 km
Apogee: 1,689.9 km
Inclination: 83.0 °
Period: 119.7 minutes
Semi major axis: 8044 km
RCS: 0.8671 m2 (medium)
Launch date: December 17, 1981
Source: Commonwealth of Independent States (former USSR) (CIS)
Launch site: PLESETSK MISSILE AND SPACE COMPLEX (PKMTR)

Uplink (MHz):
Downlink (MHz):
Beacon (MHz):
Mode:
Call sign:
Status: Inactive

aabbcc
Your satellite tracking list
Your tracking list is empty




NASA's NSSDC Master Catalog

Two Line Element Set (TLE):
1 12998U 81120B   19262.87194719 +.00000084 +00000-0 +88894-3 0  9999
2 12998 082.9637 014.1329 0019923 116.9573 006.4489 12.03154040658046
Source of the keplerian elements: AFSPC